Lincoln County, Oregon, United States
Lat: 44.65N, Lon: 123.85W
Wx Zone: ORZ004
Local Info
Past Weather Observations for Yesterday

NOTE: This archive is for the closest National Weather Service station to Lincoln County. Information may differ from the station used for current weather conditions.

Click here for Long-term Archive

Time Weather Temperature Dewpoint Humidity Pressure Winds Precip Visibility
19:55
Overcast
Fog And Mist
55°F / 13°C 54°F / 12°C 94% 30.01 in
(1016 mb)
NNW 8.1 mph
(NNW 13 kph)
- 1 3/4SM
19:35
Overcast
Fog And Mist
55°F / 13°C 54°F / 12°C 94% N/A NNW 8.1 mph
(NNW 13 kph)
- 2 1/2SM
19:15
Overcast
Fog And Mist
57°F / 14°C 55°F / 13°C 94% 30.01 in
(1016 mb)
NW 5.8 mph
(NW 9 kph)
- 4SM
18:55
Overcast
Fog And Mist
57°F / 14°C 55°F / 13°C 94% 30.01 in
(1016 mb)
NNW 6.9 mph
(NNW 11 kph)
- 4SM
18:35
Overcast
Fog And Mist
59°F / 15°C 55°F / 13°C 88% 30.01 in
(1016 mb)
NNW 8.1 mph
(NNW 13 kph)
- 4SM
18:15
Overcast
Fog And Mist
57°F / 14°C 55°F / 13°C 94% 30.01 in
(1016 mb)
NW 5.8 mph
(NW 9 kph)
- 4SM
17:55
Overcast
Fog And Mist
59°F / 15°C 54°F / 12°C 82% 30.01 in
(1016 mb)
NNW 8.1 mph
(NNW 13 kph)
- 4SM
17:35
Overcast
Fog And Mist
59°F / 15°C 55°F / 13°C 88% 30.01 in
(1016 mb)
NW 5.8 mph
(NW 9 kph)
- 5SM
17:15
Mostly Cloudy
Hazy
61°F / 16°C 55°F / 13°C 83% 30.01 in
(1016 mb)
NNW 9.2 mph
(NNW 15 kph)
- 5SM
16:55
Mostly Cloudy
Hazy
61°F / 16°C 55°F / 13°C 83% 30.01 in
(1016 mb)
NNW 12.7 mph
(NNW 20 kph)
- 5SM
16:35
Mostly Cloudy
Hazy
61°F / 16°C 55°F / 13°C 83% 30.01 in
(1016 mb)
NNW 13.8 mph
(NNW 22 kph)
- 5SM
16:15
Partly Cloudy
61°F / 16°C 55°F / 13°C 83% 30.01 in
(1016 mb)
NNW 15 mph
(NNW 24 kph)
- 7SM
15:55
Partly Cloudy
61°F / 16°C 55°F / 13°C 83% 30.01 in
(1016 mb)
NNW 16.1 mph
(NNW 26 kph)
- 7SM
15:35
Partly Cloudy
61°F / 16°C 55°F / 13°C 83% 30.01 in
(1016 mb)
NNW 13.8 mph
(NNW 22 kph)
- 7SM
15:15
Clear
61°F / 16°C 55°F / 13°C 83% 30.01 in
(1016 mb)
NNW 16.1 mph
(NNW 26 kph)
- 7SM
14:55
Clear
61°F / 16°C 55°F / 13°C 83% 30.01 in
(1016 mb)
NNW 11.5 mph
(NNW 19 kph)
- 7SM
14:35
Clear
61°F / 16°C 54°F / 12°C 77% 30.01 in
(1016 mb)
NNW 12.7 mph
(NNW 20 kph)
- 7SM
14:15
Clear
61°F / 16°C 55°F / 13°C 83% 30.01 in
(1016 mb)
NNW 13.8 mph
(NNW 22 kph)
- 7SM
13:55
Partly Cloudy
61°F / 16°C 55°F / 13°C 83% 30.01 in
(1016 mb)
NNW 16.1 mph
(NNW 26 kph)
- 7SM
13:35
Mostly Cloudy
Hazy
61°F / 16°C 55°F / 13°C 83% 30.01 in
(1016 mb)
NNW 18.4 mph
(NNW 30 kph)
- 5SM
13:15
Overcast
Fog And Mist
59°F / 15°C 55°F / 13°C 88% 30.01 in
(1016 mb)
NNW 17.3 mph
(NNW 28 kph)
- 2 1/2SM
12:55
Overcast
Hazy
61°F / 16°C 55°F / 13°C 83% 30.01 in
(1016 mb)
NNW 20.7 mph
(NNW 33 kph)
- 2 1/2SM
12:35
Overcast
Fog And Mist
59°F / 15°C 55°F / 13°C 88% 30.04 in
(1017 mb)
NNW 18.4 mph
(NNW 30 kph)
- 1 3/4SM
12:15
Overcast
Hazy
59°F / 15°C 54°F / 12°C 82% 30.04 in
(1017 mb)
NNW 23 mph
(NNW 37 kph)
- 1 1/2SM
11:55
Overcast
Hazy
61°F / 16°C 55°F / 13°C 83% 30.04 in
(1017 mb)
NNW 17.3 mph
(NNW 28 kph)
- 3SM
11:35
Partly Cloudy
Hazy
59°F / 15°C 54°F / 12°C 82% 30.04 in
(1017 mb)
NNW 18.4 mph
(NNW 30 kph)
- 4SM
11:15
Clear
61°F / 16°C 54°F / 12°C 77% N/A NNW 17.3 mph
(NNW 28 kph)
- 10SM
10:55
Partly Cloudy
61°F / 16°C 55°F / 13°C 83% 30.04 in
(1017 mb)
NNW 15 mph
(NNW 24 kph)
- 10SM
10:35
Mostly Cloudy
59°F / 15°C 54°F / 12°C 82% 30.04 in
(1017 mb)
N 19.6 mph
(N 32 kph)
- 10SM
10:15
Overcast
Fog And Mist
59°F / 15°C 54°F / 12°C 82% 30.04 in
(1017 mb)
N 17.3 mph
(N 28 kph)
- 5SM
09:55
Overcast
Hazy
59°F / 15°C 54°F / 12°C 82% 30.04 in
(1017 mb)
NNW 18.4 mph
(NNW 30 kph)
- 5SM
09:35
Mostly Cloudy
57°F / 14°C 54°F / 12°C 88% 30.04 in
(1017 mb)
N 16.1 mph
(N 26 kph)
- 7SM
09:15
Mostly Cloudy
57°F / 14°C 54°F / 12°C 88% 30.04 in
(1017 mb)
N 12.7 mph
(N 20 kph)
- 10SM
08:55
Partly Cloudy
59°F / 15°C 54°F / 12°C 82% 30.04 in
(1017 mb)
NNW 15 mph
(NNW 24 kph)
- 7SM
08:35
Partly Cloudy
57°F / 14°C 54°F / 12°C 88% 30.04 in
(1017 mb)
NNW 6.9 mph
(NNW 11 kph)
- 7SM
08:15
Partly Cloudy
55°F / 13°C 54°F / 12°C 94% 30.04 in
(1017 mb)
N 10.4 mph
(N 17 kph)
- 7SM
07:55
Clear
Fog And Mist
57°F / 14°C 54°F / 12°C 88% 30.04 in
(1017 mb)
NNW 11.5 mph
(NNW 19 kph)
- 5SM
07:35
Clear
Fog And Mist
57°F / 14°C 54°F / 12°C 88% 30.04 in
(1017 mb)
NNW 9.2 mph
(NNW 15 kph)
- 4SM
07:15
Clear
Fog And Mist
55°F / 13°C 54°F / 12°C 94% 30.04 in
(1017 mb)
NW 4.6 mph
(NW 7 kph)
- 5SM
06:55
Clear
54°F / 12°C 54°F / 12°C 100% 30.04 in
(1017 mb)
Calm - 10SM
06:35
Clear
54°F / 12°C 54°F / 12°C 100% 30.06 in
(1018 mb)
Calm - 10SM
06:15
Clear
54°F / 12°C 52°F / 11°C 94% 30.06 in
(1018 mb)
Calm - 10SM
05:55
Clear
52°F / 11°C 52°F / 11°C 100% 30.06 in
(1018 mb)
Calm - 7SM
05:35
Partly Cloudy
Fog And Mist
50°F / 10°C 50°F / 10°C 100% 30.06 in
(1018 mb)
Calm - 5SM
05:15
Mostly Cloudy
Fog
48°F / 9°C 48°F / 9°C 100% 30.06 in
(1018 mb)
Calm - 1/2SM
04:55
Mostly Cloudy
Fog And Mist
48°F / 9°C 46°F / 8°C 94% 30.06 in
(1018 mb)
Calm - 1SM
04:35
Overcast
Fog
50°F / 10°C 48°F / 9°C 94% 30.06 in
(1018 mb)
Calm - M1/4SM
04:15
Clear
Fog And Mist
50°F / 10°C 50°F / 10°C 100% 30.06 in
(1018 mb)
Calm - 5SM
03:55
Clear
46°F / 8°C 46°F / 8°C 100% 30.06 in
(1018 mb)
Calm - 10SM
03:35
Clear
Fog And Mist
48°F / 9°C 46°F / 8°C 94% 30.06 in
(1018 mb)
Calm - 4SM
03:15
Clear
46°F / 8°C 46°F / 8°C 100% 30.06 in
(1018 mb)
Calm - 7SM
02:55
Clear
Fog And Mist
46°F / 8°C 46°F / 8°C 100% 30.06 in
(1018 mb)
Calm - 5SM
02:35
Clear
46°F / 8°C 46°F / 8°C 100% 30.06 in
(1018 mb)
Calm - 7SM
02:15
Clear
46°F / 8°C 46°F / 8°C 100% 30.06 in
(1018 mb)
Calm - 7SM
01:55
Clear
48°F / 9°C 48°F / 9°C 100% 30.06 in
(1018 mb)
Calm - 7SM
01:35
Clear
48°F / 9°C 46°F / 8°C 94% 30.06 in
(1018 mb)
Calm - 7SM
01:15
Clear
50°F / 10°C 48°F / 9°C 94% N/A Calm - 7SM
00:55
Partly Cloudy
Fog And Mist
50°F / 10°C 50°F / 10°C 100% 30.06 in
(1018 mb)
Calm - 5SM
00:35
Partly Cloudy
Fog And Mist
50°F / 10°C 50°F / 10°C 100% 30.09 in
(1019 mb)
Calm - 4SM
00:15
Clear
Fog And Mist
52°F / 11°C 52°F / 11°C 100% 30.09 in
(1019 mb)
Calm - 4SM
Time Weather Temperature Dewpoint Humidity Pressure Winds Precip Visibility


Weather for websites

WeatherForYou.com, LLC is not responsible for any damages or problems caused by this service. Current weather conditions are obtained from the closest station including government and personal stations which may have varying degrees of accuracy. Weather forecasts are derived from the NOAA NDFD. Like all things, this site belongs to Jesus Christ... He just trusts us to maintain it. If you have any questions or comments email webmaster@weatherforyou.com

Copyright © 2015, WeatherForYou.com LLC. All rights reserved.